DW5256 Weather Reports


Display with metric or nautical units.
time (UTC)temp
F
wind
direction
speed
MPH
gust
MPH
rain 1hr
in
rain 24hr
in
rain mn
in
humidity
%
barometer
mb
20260509052030 60 284 0.0 0.0 0.00 0.00 0.00 84 1013.1
20260509050527 61 284 0.0 0.0 0.00 0.00 0.00 84 1013.2
20260509045023 61 284 0.0 0.0 0.00 0.00 0.00 84 1013.1
20260509043525 61 284 0.0 0.0 0.00 0.00 0.00 83 1012.9
20260509042038 61 284 0.0 0.0 0.00 0.00 0.00 83 1012.9
20260509040524 62 282 0.0 0.0 0.00 0.00 0.00 82 1012.9
20260509035018 62 279 0.0 6.0 0.00 0.00 0.00 81 1012.7
20260509033517 63 276 0.0 4.0 0.00 0.00 0.00 81 1012.5
20260509032053 63 277 0.0 3.0 0.00 0.00 0.00 80 1012.4
20260509030530 64 270 0.0 0.0 0.00 0.00 0.00 79 1012.4
20260509025026 65 272 1.0 6.0 0.00 0.00 0.00 77 1012.1
20260509023522 66 263 0.0 6.0 0.00 0.00 0.00 76 1011.9
20260509022018 67 268 0.0 7.0 0.00 0.00 0.00 74 1012.0
20260509020515 68 257 1.0 8.0 0.00 0.00 0.00 73 1011.8
20260509015013 69 254 1.0 9.0 0.00 0.00 0.00 71 1011.7
20260509013534 70 287 1.0 7.0 0.00 0.00 0.00 69 1011.8
20260509012013 71 291 2.0 7.0 0.00 0.00 0.00 68 1011.8
20260509010541 71 274 0.0 7.0 0.00 0.00 0.00 68 1011.7
20260509005017 72 298 0.0 10.0 0.00 0.00 0.00 67 1011.7
20260509003533 73 273 1.0 9.0 0.00 0.00 0.00 66 1011.8
20260509002053 72 300 1.0 7.0 0.00 0.00 0.00 66 1011.8
20260509000533 72 275 0.0 8.0 0.00 0.00 0.00 67 1011.8
20260508235032 73 298 1.0 8.0 0.00 0.00 0.00 65 1011.9
20260508233530 72 286 3.0 10.0 0.00 0.00 0.00 66 1012.0
20260508232027 73 284 4.0 10.0 0.00 0.00 0.00 66 1012.1
20260508230524 74 313 4.0 11.0 0.00 0.00 0.00 64 1012.0
20260508225021 73 269 1.0 14.0 0.00 0.00 0.00 65 1012.3
20260508223540 73 291 5.0 11.0 0.00 0.00 0.00 64 1012.2
20260508222048 74 228 2.0 11.0 0.00 0.00 0.00 63 1012.3
20260508220532 76 272 2.0 13.0 0.00 0.00 0.00 61 1012.5
20260508215026 76 209 3.0 10.0 0.00 0.00 0.00 60 1012.7
20260508213525 77 225 4.0 13.0 0.00 0.00 0.00 59 1012.6
20260508212016 77 224 0.0 10.0 0.00 0.00 0.00 60 1012.6
20260508210535 77 250 0.0 13.0 0.00 0.00 0.00 60 1012.5
20260508205029 77 269 1.0 9.0 0.00 0.00 0.00 59 1012.7
20260508203524 77 225 1.0 10.0 0.00 0.00 0.00 60 1012.7
20260508202019 76 244 3.0 10.0 0.00 0.00 0.00 61 1012.7
20260508200536 76 269 4.0 13.0 0.00 0.00 0.00 61 1012.8
20260508195029 76 275 4.0 12.0 0.00 0.00 0.00 61 1012.9
20260508193521 76 228 2.0 8.0 0.00 0.00 0.00 60 1013.2
20260508192041 74 277 1.0 9.0 0.00 0.00 0.00 61 1013.4
20260508190526 74 255 0.0 6.0 0.00 0.00 0.00 61 1013.6
20260508185030 73 240 1.0 4.0 0.00 0.00 0.00 64 1013.8
20260508183518 71 269 0.0 8.0 0.00 0.00 0.00 68 1013.9
20260508182027 69 273 2.0 10.0 0.00 0.00 0.00 70 1014.1
20260508180518 69 266 2.0 7.0 0.00 0.00 0.00 71 1014.1
20260508175021 67 252 1.0 7.0 0.00 0.00 0.00 72 1014.2
20260508173530 67 287 0.0 6.0 0.00 0.00 0.00 74 1014.2
20260508172019 66 306 2.0 6.0 0.00 0.00 0.00 76 1014.2
20260508170554 64 250 0.0 0.0 0.00 0.00 0.00 77 1014.3
20260508165041 64 209 0.0 0.0 0.00 0.00 0.00 79 1014.4
20260508163549 62 209 0.0 0.0 0.00 0.00 0.00 81 1014.5
20260508162015 62 209 0.0 0.0 0.00 0.00 0.00 81 1014.5
20260508160527 61 203 0.0 0.0 0.00 0.00 0.00 82 1014.6
20260508155022 61 205 0.0 0.0 0.00 0.00 0.00 83 1014.5
20260508153554 61 205 0.0 0.0 0.00 0.00 0.00 83 1014.7
20260508152024 61 205 0.0 0.0 0.00 0.00 0.00 84 1014.7
20260508150515 60 205 0.0 0.0 0.00 0.00 0.00 84 1014.7
20260508145050 60 205 0.0 0.0 0.00 0.00 0.00 85 1014.7
20260508143530 60 205 0.0 0.0 0.00 0.00 0.00 85 1014.5
20260508142023 60 205 0.0 0.0 0.00 0.00 0.00 85 1014.5
20260508140518 59 205 0.0 0.0 0.00 0.00 0.00 86 1014.4
20260508135053 59 206 0.0 0.0 0.00 0.00 0.00 86 1014.3
20260508133528 59 207 0.0 0.0 0.00 0.00 0.00 86 1014.1
20260508132020 59 207 0.0 0.0 0.00 0.00 0.00 86 1014.0
20260508130543 59 207 0.0 0.0 0.00 0.00 0.00 85 1014.1
20260508125017 59 209 0.0 0.0 0.00 0.00 0.00 86 1013.9
20260508123517 59 210 0.0 0.0 0.00 0.00 0.00 85 1013.8
20260508122031 59 210 0.0 0.0 0.00 0.00 0.00 85 1013.8
20260508120529 59 211 0.0 0.0 0.00 0.00 0.00 85 1013.9
20260508115022 59 214 0.0 0.0 0.00 0.00 0.00 85 1013.9
20260508113519 60 215 0.0 0.0 0.00 0.00 0.00 85 1013.8
20260508112017 60 216 0.0 0.0 0.00 0.00 0.00 85 1013.8
20260508110517 60 217 0.0 0.0 0.00 0.00 0.00 85 1013.8
20260508105015 60 217 0.0 0.0 0.00 0.00 0.00 85 1013.8
20260508103530 60 217 0.0 0.0 0.00 0.00 0.00 85 1013.9
20260508102029 60 217 0.0 0.0 0.00 0.00 0.00 85 1014.1
20260508100523 60 217 0.0 0.0 0.00 0.00 0.00 85 1014.2
20260508095017 60 217 0.0 0.0 0.00 0.00 0.00 85 1014.0
20260508093554 60 217 0.0 0.0 0.00 0.00 0.00 85 1014.0
20260508092029 60 217 0.0 0.0 0.00 0.00 0.00 85 1014.0
20260508090527 60 217 0.0 0.0 0.00 0.00 0.00 85 1014.0
20260508085018 60 217 0.0 0.0 0.00 0.00 0.00 85 1014.1
20260508083553 60 217 0.0 0.0 0.00 0.00 0.00 84 1014.2
20260508082029 60 217 0.0 0.0 0.00 0.00 0.00 84 1014.4
20260508080525 60 217 0.0 0.0 0.00 0.00 0.00 84 1014.7
20260508075031 60 217 0.0 0.0 0.00 0.00 0.00 84 1014.7
20260508073527 60 217 0.0 0.0 0.00 0.00 0.00 84 1014.7
20260508072022 60 217 0.0 0.0 0.00 0.00 0.00 84 1014.7
20260508070518 60 217 0.0 0.0 0.00 0.00 0.00 84 1014.8
20260508065023 60 218 0.0 0.0 0.00 0.00 0.00 84 1015.0
20260508063520 60 219 0.0 0.0 0.00 0.00 0.00 84 1015.0
20260508062017 60 219 0.0 0.0 0.00 0.00 0.00 83 1015.0
20260508060517 60 218 0.0 0.0 0.00 0.00 0.00 84 1015.0
20260508055015 60 219 0.0 0.0 0.00 0.00 0.00 84 1014.9
20260508053531 60 219 0.0 0.0 0.00 0.00 0.00 84 1014.9